{"data":{"norad_id":47533,"intl_designator":"2021-007B","name":"YAOGAN-31 02B","alt_names":[],"object_type":"PAYLOAD","status":"ACTIVE","operator":null,"country":"PRC","launch_date":"2021-01-29","launch_site_code":"JSC","launch_vehicle":null,"mission":null,"orbit_class":"UNKNOWN","rcs_meters":null,"size_class":null,"mass_kg":null,"dimensions":null,"purposes":[],"wikipedia_slug":null,"has_3d_model":false,"image_url":null,"decayed_at":null,"tle_current":{"epoch":"2026-05-25T05:26:44.495232Z","epoch_age_seconds":55482,"freshness":"FRESH","line1":"1 47533U 21007B   26145.22690388 -.00000035  00000+0  84690-4 0  9997","line2":"2 47533  63.4021 201.1326 0174452   0.5524 359.5663 13.45446609261147","mean_motion":13.45446609,"eccentricity":0.0174452,"inclination_deg":63.4021,"raan_deg":201.1326,"arg_perigee_deg":0.5524,"mean_anomaly_deg":359.5663,"bstar":8.469e-5,"rev_number":26114,"period_min":107.02765835281,"perigee_km":958.7919027619,"apogee_km":1219.3253449566,"semimajor_km":7467.1956238593,"source":"CELESTRAK","updated_at":"2026-05-25T13:37:56.475477Z"}}}